L'Héraultaise - 06/04/2014

93 km


Pl Do. Nom - Surname Prénom - Name S-Cat /cat Club - Team TEMPS - Time Km/h /sx
1 1632 PINOL DANNY MB 1 vc melgorien 02:40:53 34,68 1
2 1687 CANTONI VINCENT MB 2 asph montpellier 02:40:54 34,68 2
3 1626 SOLA CAMILLE MB 3 montagnac 02:41:00 34,66 3
4 1850 CHAPELLE JEREMIE MB 4 team bouticycle ales 02:41:01 34,65 4
5 1753 MAERE LÉOS MA 1 guidon sportif sétois 02:41:01 34,65 5
6 1574 CHESNAIS JULIEN MA 2 cvc montfavet 02:41:02 34,65 6
7 1249 DAGORNE FLORIAN MA 3 team montagnac ac 02:42:41 34,30 7
8 1451 AMOROS FRANCK MA 4 guidon sportif sètois 02:42:41 34,30 8
9 1575 MANDELLI JEAN PHILIPPE MC 1 vélo club la pomme 02:42:46 34,28 9
10 1411 SKAKAL ADRIEN MA 5 guidon sportif sétois 02:42:47 34,28 10
11 1705 ARTIERES CÉDRIC MC 2 vélo sport saint affricain 02:42:52 34,26 11
12 1702 PAGES YOAN MA 6 vélo sport saint affricain 02:43:03 34,22 12
13 1841 FERNANDEZ FLORIAN MA 7 team montagnac ac 02:43:42 34,08 13
14 1548 JOUVE ANTOINE MA 8 u.c saint-chély 02:44:44 33,87 14
15 1484 LAGASSE GUILLAUME MB 5 gaillac 02:44:58 33,82 15
16 1325 VALLEJO CEDRIC MB 6 asph montpellier 02:44:58 33,82 16
17 1480 HERNANDEZ FRANCK MC 3 cocgp30 02:44:59 33,82 17
18 1703 FONTENIT FREDERIC MC 4 cocgp30 02:45:00 33,82 18
19 1608 CLIMENT SEBASTIEN MB 7 c.v pernes 02:45:00 33,82 19
20 1489 DAUNIZEAU HERVÉ MB 8 les chameaux de béziers 02:45:01 33,81 20
21 1832 RUBIO ERIC MD 1 ac clapiers 02:45:01 33,81 21
22 1620 RANDON PHILIPPE MD 2 team montagnac ac 02:45:01 33,81 22
23 1866 ARNOLD GILLES MD 3 ac clapiers 02:45:02 33,81 23
24 1555 LAVAILL XAVIER MB 9 team montagnac ac 02:45:02 33,81 24
25 1712 REYNES STEPHANE MC 5 velo sport saint affricain 02:45:02 33,81 25
26 1577 BRUN CHRISTOPHE MC 6 velo club mauguio 02:45:04 33,80 26
27 1651 DA COSTA MEL MA 9 vélo sprint narbonnais 02:45:05 33,80 27
28 1309 CAMPOS XAVIER MC 7 cyclo realmontais 02:45:58 33,62 28
29 1281 CASAJUST XAVIER MC 8 ventoux velo 02:46:02 33,61 29
30 1529 LAURÈS MATHIEU MA 10 vtt roc evasion 02:46:39 33,48 30
31 1819 CARAMEL MAXIME MA 11   02:48:24 33,13 31
32 1429 MAURIN LAURENT MC 9 v.c.salindres 02:48:37 33,09 32
33 1805 ROUZET ERIC MD 4 vélo sprint bességeois 02:48:38 33,09 33
34 1804 ROUZET FABRICE MC 10 vél spriny bességeois 02:48:39 33,09 34
35 1541 DANJOU STEPHANE MC 11 vtt limoux 02:48:39 33,08 35
36 1675 GUIGON GILLES MB 10 cso millau 02:48:41 33,08 36
37 1754 SAIX FABIEN MB 11 sud velo 02:48:42 33,08 37
38 1405 AUTRIC FRÉDÉRIC MC 12 vcll pézenas 02:48:42 33,07 38
39 1440 AIGON SÉBASTIEN MA 12 vélo club salindres st privat 02:48:42 33,07 39
40 1813 SPRINGARD WILLIAM MA 13 velo club mauguio carnon 02:48:42 33,07 40
41 1257 LIEUTIER EMMANUEL MC 13 cyclo club rivesaltes 02:48:43 33,07 41
42 1456 SEGURA GUILLAUME MB 12 saint tulle velo sport 02:48:43 33,07 42
43 1453 ALLIES ROMAIN MA 14 vcll pézenas 02:48:44 33,07 43
44 1605 JOOS FRANÇOIS MA 15 rivesaltes 02:48:44 33,07 44
45 1566 ARTIGUES OLIVIER MB 13   02:48:44 33,07 45
46 1591 PRAX GUILHEM MA 16 team bouticycle ales / velo ce millau 02:48:48 33,06 46
47 1684 DUMONT FRANCK MB 14 la fleche floracoise 02:48:58 33,02 47
48 1507 VERNET FRÉDÉRIC MB 15 team baudille cyclisme 34 02:49:07 32,99 48
49 1680 JEANJEAN GILLES MD 5 team montagnac ac 02:49:18 32,96 49
50 1554 BOUAD JEREMIE MB 16 asc carcassonne 02:50:03 32,81 50
51 1304 TORRO FLORIAN MA 17 asph triathlon 02:51:24 32,55 51
52 1571 BEAUMONT JEAN-MARC MD 6 team montagnac ac 02:52:12 32,40 52
53 1476 MARTY GAËL MB 17 béziers méditerannée cyclisme 02:52:13 32,40 53
54 1422 LOPEZ CORENTIN MA 18 velo club vedasien 02:52:13 32,40 54
55 1237 BENAREAU IGNAKI MC 14 cc le boulou 02:52:14 32,40 55
56 1818 GUMY ERIC MC 15   02:52:14 32,40 56
57 1315 DUPEYRE ERIC MD 7 montagnac ac 02:52:14 32,40 57
58 1599 ENGUIDANOS FRANCK MA 19 carcassonne 02:52:14 32,40 58
59 1528 MANEZ PHILIPPE MD 8 team montagnac ac 02:52:15 32,39 59
60 454 CABROLIER STÉPHAN MC 16 club cycliste solidarité 34 02:52:15 32,39 60
61 1572 LAURENT CHRISTOPHE MB 18   02:52:16 32,39 61
62 1243 REVEILLAS LIVIA FW1 1 montagnac ac 02:52:16 32,39 1
63 1393 ROUSSEL SEBASTIEN MB 19 cyclo club mazérien 02:52:16 32,39 62
64 1331 SOLER DIEGO MD 9 montagnac 02:52:17 32,39 63
65 1707 BERNICOT JEAN-MICHEL MB 20 cac66 02:52:18 32,38 64
66 1445 DUMAS DAVID MB 21 béziers méditerranée cyclisme 02:52:21 32,37 65
67 1455 LUCY MATHIEU MA 20 lunel vélo passion 02:52:21 32,37 66
68 1785 LEVASSEUR JEROME MC 17 guidon sportif setois 02:53:46 32,11 67
69 1454 BERTON SYLAVIN MB 22 asph montpellier 02:54:43 31,94 68
70 1296 GADENNE ALAIN ME 1 cc le boulou 02:55:10 31,85 69
71 1483 COSTA CYRI MC 18   02:55:10 31,85 70
72 1469 GONZALEZ GEORGES MD 10 cyclosportcatalan 02:55:11 31,85 71
73 1655 CLEMENCON PASCAL MB 23 team montagnac ac 02:55:13 31,85 72
74 1495 FOURES PATRICE MC 19 vc ruthenois 02:55:13 31,85 73
75 1301 CHASSERAY CLAUDE MC 20   02:55:13 31,84 74
76 1275 RAJA MORGAN MA 21 union cycliste st chély 02:55:13 31,84 75
77 1401 AUDRIN CHRISTIAN MC 21 tbc 34 02:55:14 31,84 76
78 1409 LECLERCQ CHRISTOPHE MC 22 st peray 02:55:15 31,84 77
79 1602 MORENO ANTHONY MB 24 rivesaltes 02:55:19 31,83 78
80 1710 COURRIEU JEAN-MICHEL MC 23   02:56:24 31,63 79
81 1610 KALS BETTY FW1 2 a. c. bollene 02:56:28 31,62 2
82 1611 AZAM EMELINE FW1 3 vc le boulou 02:56:28 31,62 3
83 1864 AURIC JEAN-CLAUDE MD 11 velo club moyenne durance 02:56:28 31,62 80
84 1435 RAMON MICHAEL MA 22 velo club melgorien 02:56:29 31,62 81
85 1595 CENTELLES JEAN MARC MD 12   02:56:30 31,61 82
86 1636 EL HAJJI HAMID MC 24 le guidon d'or tarasconnais 02:56:31 31,61 83
87 1679 CAYROL PATRICK MC 25 sigean 02:56:31 31,61 84
88 1404 CAZILLAC PATRICE MC 26 guidon sportif coursan narbonne 02:56:32 31,61 85
89 1798 BERTHUIT DAMIEN MB 25 saint chely cyclisme 02:56:32 31,61 86
90 1674 DEBRIE JOEL MC 27 cso millau 02:56:34 31,60 87
91 1867 ROMAN JULIEN MC 28 vcll pezenas 02:56:34 31,60 88
92 1545 RUIZ VALENTIN MA 23 vc mt-aigoual pays viganais 02:57:44 31,39 89
93 1869 BRAVOS DANIEL MD 13   02:57:44 31,39 90
94 1865 CLAUDE ERIC MB 26 cc le boulou 02:57:45 31,39 91
95 1485 CAVAILLE FLORIAN MB 27 asptt gaillac 02:57:45 31,39 92
96 1662 DEBIEVE LUCAS MA 24 lunel bike 02:57:46 31,39 93
97 1216 CHARMEAU JEAN MARC MD 14 teyran bike 34 02:57:46 31,39 94
98 1299 GARCIA JEAN CHRISTOPHE MB 28 chameaux de beziers 02:57:46 31,39 95
99 1318 AIT KHEDACHE LIONEL MC 29   02:57:46 31,39 96
100 1757 CHAPEL DANIEL ME 2 ac montagnac 02:57:46 31,39 97
101 1289 BEGOUT CHRISTIAN MD 15 avc nimes 02:57:47 31,39 98
102 1419 RAGNERE RENE MD 16 audax narbonnais 02:57:47 31,39 99
103 1290 OWENS ERIK MB 29   02:57:47 31,38 100
104 1708 BARROIS BENJAMIN MB 30   02:57:47 31,38 101
105 1395 SEVILLA PIERRE MD 17 team madewis 02:57:48 31,38 102
106 1840 FLATRY OLIVIER MC 30 team montagnac ac 02:57:49 31,38 103
107 1842 RIEU VALENTIN MA 25 team montagnac ac 02:57:49 31,38 104
108 1392 VANDERBEKE JOHANN MB 31 team madewis 02:57:49 31,38 105
109 1479 DE SAN NICOLAS ERIC MC 31 veloce club montauban 02:57:50 31,38 106
110 1653 CORDES SYLVIE FW2 1 cyclo sport cavaillon 02:57:51 31,37 4
111 1690 SABIN PAULINE FW1 4 apc12 02:57:52 31,37 5
112 1280 COLLAS PIERRE MA 26 gsc blagnac vélo sport 31 02:58:02 31,34 107
113 1855 JEANJEAN ALAIN ME 3 velo club blayais 02:58:07 31,33 108
114 1277 CHAUZU LUDOVIC MC 32 lunel velo passion 02:58:54 31,19 109
115 1208 TISON STÉPHANE MC 33 asph 02:59:11 31,14 110
116 1544 BONZOMS CHRISTOPHE MC 34 guidon sportif coursan narbonne 02:59:15 31,13 111
117 1470 TEZIER FREDERIC MC 35 team montagnac avenir cycliste 02:59:32 31,08 112
118 1448 MOLY DAVID MB 32 asvrtt 02:59:32 31,08 113
119 1808 TEYSSIER GILLES MC 36 vélo sprint bességeois 02:59:38 31,06 114
120 1733 GALTRAND JULIEN MA 27 allbikes7/guidon sportif setois 02:59:38 31,06 115
121 1271 ALOY CHRISTIAN MF 1   02:59:39 31,06 116
122 1428 FONTERS ERIC MC 37 team montagnac ac 02:59:39 31,06 117
123 1441 PONTELLO MATHIEU MC 38 chameaux de beziers 02:59:40 31,06 118
124 1496 BRESLAVEC ROMAIN MB 33   02:59:42 31,05 119
125 1244 CAUMETTE CHRISTOPHE MC 39 abeilhan 02:59:44 31,05 120
126 1232 ITURAT JOSE MD 18 abeilhan 02:59:45 31,04 121
127 1402 ENGSTER JEAN MA 28 lunel velo passion 02:59:46 31,04 122
128 1689 CAMARENA JOSE MF 2   02:59:47 31,04 123
129 1468 MAZIERES AIME MC 40 club omnisports conseil général et préfecture 30 02:59:48 31,03 124
130 1600 BRUN CLEMENT MC 41   03:00:00 31,00 125
131 1463 LAUSSEL FABRICE MC 42 vcll pézenas 03:00:01 31,00 126
132 1581 ANDRÉ CHRISTIAN MC 43 pezenas vcll 03:00:01 31,00 127
133 1779 SANCHEZ FRANCISCO MD 19 mauguio 03:00:01 31,00 128
134 1518 VAUDÉ HENRY MD 20 team montagnac ac. 03:00:01 31,00 129
135 1846 GALANT JEAN-MARC MC 44 velo club st mathieu 03:00:04 30,99 130
136 1711 PRADIER THIERRY MD 21 velo plus pertuis 03:00:04 30,99 131
137 1709 PRADIER NATHALIE FW3 1 velo plus pertuis 03:01:59 30,66 6
138 1820 LEY ANTOINE MA 29   03:02:04 30,65 132
139 1443 BRIONNE SERGE MD 22 uscasa cyclo vtt 03:02:06 30,64 133
140 1631 FONTES THIERRY MC 45 mazeres cyclo club 03:02:06 30,64 134
141 1536 SERRANO JEAN-MICHEL MC 46 teambaudille34 03:02:06 30,64 135
142 1851 PARRA JEAN-CHARLES ME 4 montagnac ac 03:02:06 30,64 136
143 1563 COSTANZO MARCEL MD 23 g.s.coursan-narbonne 03:02:06 30,64 137
144 1656 MONZO MICKAEL MA 30 pezenas vcll 03:02:06 30,64 138
145 1598 DUCROCQ JEAN-PIERRE MC 47 ascarcassonnecycliste 03:02:07 30,64 139
146 1442 FIAERT CLAUDE MC 48 uscasa cyclo vtt 03:02:08 30,64 140
147 1639 MARTINEZ JEAN-FRANÇOIS MC 49 non 03:02:09 30,63 141
148 1771 DELCROIX DANIEL MD 24 asph 03:02:40 30,55 142
149 1612 COUDENE SÉBASTIEN MB 34 a. c. bollene 03:03:06 30,47 143
150 20 OLIVE ANDRÉ MF 3 velo concept 03:03:06 30,47 144
151 1670 FONS SYLVIA FW1 5 cyclo club rivesaltes 03:03:07 30,47 7
152 1252 DUPONT JOHAN MB 35 agacyclos 03:03:07 30,47 145
153 1394 BARRANS ALAIN MC 50   03:03:25 30,42 146
154 1547 BASANJON HERVE MC 51 caveirac 03:03:28 30,41 147
155 1408 SPIEWAK JEAN MATHIAS MB 36 sud vélo 03:03:30 30,41 148
156 1421 EVE MARCEL MF 4 canohès avenir cycliste 03:03:30 30,41 149
157 1473 PASCAL FABRICE MB 37 vc salindres 03:03:30 30,41 150
158 1652 MARTIN XAVIER MC 52 teyran bike 34 03:03:30 30,41 151
159 1560 BARRE PIERRE ME 5 velo club mauguio carnon 03:03:31 30,41 152
160 1516 CAUSSEL LILIAN MC 53 fleche du midi 03:03:31 30,40 153
161 1475 ANTUNES DOMINIQUE ME 6 beziers mediterranée cyclisme 03:03:31 30,40 154
162 1747 MONFIL XAVIER MD 25 team montagnac ac 03:03:32 30,40 155
163 1494 GUIZARD JEAN FRANÇOI MC 54 cc rivesaltes 03:03:32 30,40 156
164 1811 FRAYSSE CHRISTIAN MC 55 a c clapiers 03:03:32 30,40 157
165 1372 CLEMENT JEREMIE MB 38 la grande motte triathlon 03:03:36 30,39 158
166 1640 PONTELLO GUILLAUME MB 39 beziers triathlon 03:04:01 30,32 159
167 1305 AMO THOMAS MA 31 triathlon club de la grande motte 03:04:34 30,23 160
168 1673 FERRERE LUDOVIC MF 5 sud vélo 03:04:35 30,23 161
169 1254 ALLIER JEANLUC MD 26 avenir cycliste corconne 03:05:07 30,14 162
170 1477 FABRY FREDERIC MB 40 asph 03:05:07 30,14 163
171 1557 SOLIGNAC THIERRY MD 27 team montagnac ac 03:05:15 30,12 164
172 1478 BOUTHEON DOMINIQUE MC 56 cyclo sport catalan 03:05:16 30,12 165
173 1637 BENEDETTI DAMIEN MB 41 guidon sportif setois 03:05:16 30,12 166
174 1260 DE OLIVEIRA ARTHUR MC 57 us nohicoise 03:05:17 30,12 167
175 1576 PY CHRISTOPHE MB 42 ec balarucois 03:05:18 30,11 168
176 1686 CAZOTTES LORIS MA 32 montpellier agglo triathlon 03:05:18 30,11 169
177 1364 IBANEZ MICHEL MD 28 cyclo fonsorbais 03:05:19 30,11 170
178 1590 COMBES GUY MD 29 cc rivesaltes 03:05:21 30,11 171
179 1589 RAHMOUNI ABDEL MD 30 cyclo club rivesaltes 03:05:21 30,10 172
180 1578 FLORES THIERRY MC 58 cazouls mentalos 03:06:03 29,99 173
181 1594 BERTRAND WILFRIED MB 43 mauguio 03:06:16 29,96 174
182 1506 TRZEWIK FABRICE MC 59 vcll 03:06:16 29,96 175
183 1671 INOTO SOTO JOSE JUAN MB 44 velo sport baho 03:06:19 29,95 176
184 1486 DOLLADILLE CHRISTOPHE MC 60 vsga 03:07:05 29,83 177
185 1380 JAKUBCZYK STEVEN MA 33 vo2 triathlon 03:07:06 29,82 178
186 1239 CARAYON PATRICK MC 61   03:07:07 29,82 179
187 1796 ORTUNO LAURENT MF 6 tcn 03:07:07 29,82 180
188 1420 CRUZ THIERRY MD 31 team madewis 03:07:07 29,82 181
189 1434 NUBOIS JOËL ME 7 guidon sportif setois 03:07:08 29,82 182
190 1556 PAGNOT YANNICK MB 45 non 03:07:09 29,82 183
191 1584 CIRCHIRILLO SERGE MD 32   03:07:09 29,82 184
192 1287 MARTINEZ ANGE MD 33 st. colomb 03:07:09 29,81 185
193 1682 MARTINEZ THIERRY MC 62   03:07:10 29,81 186
194 1692 PUY PAUL MA 34 velo 03:07:10 29,81 187
195 1381 TOGNATTI GERALD MC 63 u.c manosque 04 03:07:10 29,81 188
196 1579 DJILLALI WILLIAM MC 64 salindres saint privat des vieux 03:07:12 29,81 189
197 1619 FERIAUD JEROME MC 65 tri beaucaire tarascon 03:07:14 29,80 190
198 1387 LE FAILLER YANN MC 66   03:07:14 29,80 191
199 1452 AMOROS MARC MA 35 guidon sportif sètois 03:07:15 29,80 192
200 1397 BARBAZA CHRISTIAN MC 67 velo sport castelnaudary 03:07:17 29,79 193
201 1285 VILLENA ERIC MC 68 latitude race 03:07:19 29,79 194
202 1210 AMEDURI JULIEN MF 7   03:08:51 29,55 195
203 1532 PERIE SERGE ME 8 guidon sportif coursan narbonne 03:09:54 29,38 196
204 1697 CHAPEL ALAIN ME 9 velo club grabellois 03:09:54 29,38 197
205 1465 BERNARDI LAURENT MC 69 velo club salindres 03:09:55 29,38 198
206 1498 LORENZIN BRUNO MC 70 cc sigean 03:09:56 29,38 199
207 1537 TISSOT ANTHONY MA 36 vo2 triathlon 03:10:12 29,34 200
208 1437 TOULOUSE MICHEL MC 71 asptt gaillac cyclosport 03:10:12 29,34 201
209 1797 GARRIC MICHEL MD 34 - 03:10:14 29,33 202
210 1839 GEORGERENS CEDRIC MC 72 team montagnac ac 03:10:14 29,33 203
211 1378 HERVE MARTIAL MD 35 vo2 triathlon 03:10:14 29,33 204
212 1695 VEZINHET JOEL ME 10   03:10:14 29,33 205
213 1311 SOLER PHILIPPE MC 73 cso millau 03:10:17 29,32 206
214 1628 FLORES JEAN MARC MD 36   03:10:18 29,32 207
215 1501 DANIS PASCAL ME 11   03:10:22 29,31 208
216 1586 MARTINAZ PASCAL MH 1 velo club castries 03:10:22 29,31 209
217 1607 JAUFFRET MAURICE MD 37 cyclo sport cavaillon 03:10:24 29,31 210
218 1382 MARECHAL ERIC MF 8 c c rivesaltes 03:10:24 29,30 211
219 1233 BONGRAND BERTRAND MA 37 vccbeziers 03:11:31 29,14 212
220 1461 ROLLINGER JULIEN MA 38 veloce club montalbanais 03:11:38 29,12 213
221 1520 BUTAIJE GÉRY MD 38 speedy club namur 03:11:54 29,08 214
222 1738 CAIZERGUES SIMON MA 39 mousquetaires cyclistes pradeens 03:11:56 29,07 215
223 211 MARTY XAVIER MC 74   03:12:24 29,00 216
224 1854 SCHRAPFF DENNIS MC 75 ac clapiers 03:12:46 28,95 217
225 1322 DIJOLS HUGUES MB 46 team montagnac ac 03:12:50 28,94 218
226 1407 SCHAEFFER JÉRÔME MB 47 asph montpellier 03:13:07 28,89 219
227 1592 NAVAS CEDRIC MC 76 team montagnac ac 03:13:31 28,83 220
228 1815 MORTELETTE BERNARD MD 39   03:13:31 28,83 221
229 1844 BARRACO ANTOINE MD 40 asph montpellier 03:13:36 28,82 222
230 1502 MAT JACQUES MF 9 velo club de bourg st maurice 03:13:36 28,82 223
231 1677 CHRISTOPHE LEHMANN MC 77 vélo club lézignanais 03:13:36 28,82 224
232 1669 BIGOURET JEAN LOUIS MC 78 cyclo club rivesaltes 03:13:37 28,82 225
233 1776 RAGUET MAXIME MF 10 nimes croco d'airain 03:13:37 28,82 226
234 1521 BARBA ROBERT MF 11 aubignan cyclo cabanette 03:13:37 28,82 227
235 1659 GARRIGUES GARRIGUES MA 40 apc rodez 03:13:38 28,82 228
236 1633 PONS LAURENT MC 79 mauguio 03:13:38 28,82 229
237 1616 TREARD PHILIPPE MD 41 cc bédarieux 03:13:38 28,82 230
238 1727 BARROSO SERGE MD 42 vailhauques 03:13:39 28,81 231
239 1650 MAZET GAUTHIER MC 80 cyclo mazères 03:13:39 28,81 232
240 1861 PEASTER CHRISTOPHE MD 43 coc carnon cyclo 03:13:39 28,81 233
241 1627 BENOSA BRUNO MD 44   03:13:40 28,81 234
242 1269 CARUSO JEAN MARC MC 81 lunel velo passion 03:13:40 28,81 235
243 1294 VENTURI CHRISTIAN ME 12   03:13:41 28,81 236
244 1676 THOMAS XAVIER MC 82 les randonneurs lezignanais 03:13:41 28,81 237
245 1326 ETIENNE PATRICK MD 45 ales triathlon 03:13:42 28,81 238
246 1569 METEZEAU CHRISTOPHE MA 41 abeilhan 03:13:42 28,81 239
247 1824 BONNEL LAURENT MC 83   03:13:43 28,80 240
248 1327 ETIENNE NATHALIE FW2 2 ales triathlon 03:13:43 28,80 8
249 1862 GUILLON PATRICK MD 46 coc carnon cyclo 03:13:44 28,80 241
250 1826 SANCHEZ LUCAS MC 84   03:13:55 28,77 242
251 1540 CAUSSEL LOUIS MF 12 fleche du midi 03:14:02 28,76 243
252 1400 SCHMITH PATRICK MD 47 triathlon club carcassonne 03:14:04 28,75 244
253 1546 MILHAU PIERRE MC 85 lacaune 03:15:05 28,60 245
254 1278 BENOIT VINCENT MF 13 croco d'airain 03:15:09 28,59 246
255 1549 ROUZAUD BOY "GUYLAINE, JOAN" FW3 2 grabellois 03:15:21 28,56 9
256 1763 MONSEGUR FRANCK MC 86 vcll pezenas 03:15:22 28,56 247
257 1513 GUIRAUDOU FREDERIC MD 48   03:15:22 28,56 248
258 1229 LEMEUNIER JACQUES MB 48 triathlon club la grande motte 03:15:23 28,56 249
259 1230 MUSSET BERNARD ME 13 ocp provence 03:16:28 28,40 250
260 1660 ARGUEL BERNARD MF 14 vc du velay 03:17:19 28,28 251
261 1535 MANCEL ADELINE FW1 6 girou triathlon 03:17:24 28,27 10
262 1621 GIULIANI CHRISTOPHE MD 49 velo sport castrais 03:17:26 28,26 252
263 1609 BOURRET THIERRY MD 50 club cycliste solidaritè 34 03:17:29 28,26 253
264 1379 KOCIUBA OLIVIER MB 49 mat 03:17:29 28,25 254
265 1868 CHAVANON VERONIQUE FW3 3 chamrousse cyclosport 03:17:30 28,25 11
266 1765 DARDIER PHILIPPE MC 87   03:17:37 28,24 255
267 1261 SALUZZO GABRIEL MD 51 v.c.c.biterrois 03:17:41 28,23 256
268 1209 TOURRIERE WILLIAM MC 88 velo club grabellois 03:17:59 28,18 257
269 1534 LEROUX JULIEN MB 50 girou triathlon 03:17:59 28,18 258
270 1503 DEURIEU FABIEN MB 51 triathlete club narbonnais 03:18:00 28,18 259
271 1683 TERZIBACHIAN FRANCK MF 15 vc la pomme marseille 03:18:01 28,18 260
272 1343 TERRADE JEAN LOUIS ME 14 cyclo fonsorbais 03:18:01 28,18 261
273 1696 MARTINEZ ANTOINE ME 15 velo club grabellois 03:18:03 28,17 262
274 1573 VACARESSE MICHEL MD 52 vélo club grabellois 03:18:03 28,17 263
275 1321 RODRIGUEZ RICHARD MD 53 cyclo sport ciotaden 03:18:04 28,17 264
276 1756 GONZALEZ ALAIN MD 54   03:18:05 28,17 265
277 1768 FABRE STEPHANE MD 55 lattes cyclisme 03:18:05 28,17 266
278 1775 TERAUBE JACQUES MF 16   03:18:05 28,17 267
279 1313 PONS LAURENT MC 89 ec balaruc 03:18:05 28,17 268
280 1224 LACAN RAYMOND MD 56 velo sport castrais 03:18:06 28,17 269
281 1601 CALVAYRAC DIDIER MC 90 st jean de vedas 03:18:07 28,16 270
282 1236 BENAREAU PEDERSEN MALENE FW2 3 cc le boulou 03:18:19 28,14 12
283 1227 SIFFRE JEAN MARIE MC 91 cyclo club sigean 03:18:48 28,07 271
284 1773 VENGEON PATRICK MC 92 etoile sportive de cannes 03:18:57 28,05 272
285 1678 FECCI SERGE   1 non 03:18:59 28,04 273
286 1471 MASSOL VINCENT MC 93 non licencié 03:19:12 28,01 274
287 1688 HENRY-BARRIOL MAXIME MA 42 cyclo club chateaurenard 03:19:17 28,00 275
288 1559 BONNET GUILLAUME MA 43 lunel vélo passion 03:19:17 28,00 276
289 1225 BRENNAN JOHN MD 57 pezenas 03:19:19 27,99 277
290 1439 BOURRELLY JULIEN MA 44 cyclo sport ciotaden 03:19:42 27,94 278
291 1735 VELATI JEROME MB 52 la grande motte 03:19:44 27,94 279
292 1852 FRAISSE ROBERT ME 16   03:19:45 27,93 280
293 1543 CHAMBERT PHILIPPE MD 58 caveirac 03:19:47 27,93 281
294 1447 FAVIER SERGE MC 94   03:19:48 27,93 282
295 1603 MANDART NADEGE FW1 7 rivesaltes 03:19:49 27,92 13
296 1302 RODIER JEAN LUC MD 59 coc carnon 03:19:50 27,92 283
297 1415 GIULIANI GILBERT ME 17 as bedarrides 03:19:51 27,92 284
298 1701 APRIN DENIS MD 60 velo club novais 03:19:51 27,92 285
299 1685 CHAREYRON CLAUDE MD 61 team saint chamas passion 03:19:57 27,91 286
300 1214 CAPELLE CLAUDE ME 18   03:20:29 27,83 287
301 1849 VALDEYRON THIERRY MC 95   03:20:37 27,81 288
302 1858 FOUQUET GERARD ME 19 vc pezenas 03:20:40 27,81 289
303 1424 GONCALVES STEPHANE MC 96 groupe cyclo nimois 03:20:43 27,80 290
304 1306 FOUGA GILLES MF 17 team montagnac ac 03:20:44 27,80 291
305 1764 ABELARD VIANNEY MB 53 tuc tri 03:20:44 27,80 292
306 1222 DIAZ JEAN LUC MD 62   03:20:48 27,79 293
307 1629 BRULETOURTE JACKY MF 18 aucun 03:20:50 27,78 294
308 1782 TREBUCHON MARIE NOELLE FW3 4 vcll pezenas 03:21:45 27,66 14
309 1617 AYMARD JEAN-PIERRE MD 63   03:21:50 27,64 295
310 1403 FAURE FLORIAN MF 19 neant 03:21:51 27,64 296
311 1246 VALENTI THIERRY MD 64   03:21:51 27,64 297
312 1623 DEBARD STEPHANE MB 54 club de fraisses 42 03:21:54 27,64 298
313 1784 PEREZ MIGUEL MC 97 carcassonne individuel 03:22:02 27,62 299
314 1847 REYNAUD JEAN-CHRISTOPHE MB 55 team adc 03:22:21 27,57 300
315 1668 COUVRAT MAXIME MB 56 neutre 03:22:24 27,57 301
316 1375 MILAN DIMITRI MC 98 caveirac 03:22:24 27,57 302
317 1450 RAMOS MANUEL MC 99 cyclosport catalan 03:22:24 27,57 303
318 1418 RESALT DIDIER MC 100 elan cycliste balarucois 03:22:26 27,56 304
319 1263 CHACON ANABEL FW3 5 avenir cyclisiste corconne 03:22:26 27,56 15
320 1262 FESQUET NICOLAS MC 101 béziers triathlon 03:22:26 27,56 305
321 1827 QUERBES JEAN-PIERRE MD 65 caveirac vtt club 03:22:26 27,56 306
322 1860 PAPALIA ERIC MC 102   03:22:30 27,56 307
323 1245 NOMDEDEU CAROLE FW2 4 agacyclos 03:22:49 27,51 16
324 1870 GUITARD THIBAUD MB 57   03:23:01 27,48 308
325 1273 IBANEZ JEAN MARIE MC 103 vtt caveirac 03:23:06 27,47 309
326 1553 DURAND PIERRE-MARIE MB 58   03:23:27 27,43 310
327 1272 STIRNEMANN CHRISTIAN MD 66 cc alleins 03:23:29 27,42 311
328 1522 MARTINEZ JOSÉ ME 20   03:23:30 27,42 312
329 1523 KIEN EMMANUEL MC 104   03:23:31 27,42 313
330 1320 AUVOLAT DOMINIQUE MF 20 velo club novais 03:23:33 27,41 314
331 1657 LAVAUR JACQUES ME 21 pézenas vcll 03:23:40 27,40 315
332 1618 SAURET GAETAN MA 45 cyclo club tuchannais 03:23:40 27,40 316
333 1462 DARDENNES CHRISTOPHE MB 59 asuc migennes 03:23:55 27,36 317
334 1215 HOLLEY JEFF MB 60 usnm 03:23:57 27,36 318
335 1432 BRAVOS FERNAND MD 67 acm monsteveroux 03:24:26 27,29 319
336 1831 NOGUES FRANCOIS MB 61 as l'union triathlon 03:24:35 27,27 320
337 1614 CAVAILHES WILLIAM MD 68   03:24:36 27,27 321
338 1391 BRESSION BERTRAND MB 62 mauguio 03:24:40 27,26 322
339 1357 POULIQUEN THIERRY MD 69 cyclo fonsorbais 03:24:42 27,26 323
340 1856 DELHAYE STEPHANE MC 105 usp issoirienne 03:24:52 27,24 324
341 1691 LE BRET DANIEL MD 70 mèze 03:25:24 27,16 325
342 1530 MAS CHRISTIAN MF 21 bouzigues 03:25:26 27,16 326
343 1642 PEREZ PAQUITA FW2 5 cyclo club paulhan 03:25:37 27,14 17
344 1641 PEREZ PATRICK MC 106 cyclo club paulhan 03:25:40 27,13 327
345 1643 BALTHAZARD SYLVAIN MD 71 cyclo club paulhan 03:25:40 27,13 328
346 1265 DUPONT CHRISTOPHE MC 107 veloce montalbanais 03:25:41 27,13 329
347 1859 CLAVEL OLIVIER MC 108 vtt caveirac 03:25:42 27,13 330
348 1383 SANSONE ERIC MC 109 lunel velo passion 03:25:45 27,12 331
349 1593 MIQUEU DIDIER MB 63 cyclo fonsorbais 03:25:56 27,10 332
350 210 MALKOWIAK ERIC MC 110   03:26:20 27,04 333
351 1481 MONTES FLORENT MD 72 velo club grabellois 03:26:23 27,04 334
352 1509 CASTELBOU OLIVIER ME 22 mjc cyclo club tuchanais 03:26:24 27,03 335
353 1217 BOISSET KÉVIN MB 64   03:26:25 27,03 336
354 1587 CROUZET CHRISTIAN MD 73 cyclo club de castries 03:26:28 27,02 337
355 1596 CAVALIER JEAN-GABRIEL MD 74 vélo d'olt 03:26:29 27,02 338
356 1238 PATRONE GEORGES MD 75   03:26:30 27,02 339
357 1800 GRELICHE CHRISTIAN ME 23 saint chely cyclisme 03:26:35 27,01 340
358 1799 BERTHUIT ROLAND ME 24 saint chely cyclisme 03:26:35 27,01 341
359 1410 JULLIAN MAURICE ME 25 velo club novais 03:26:47 26,98 342
360 1276 DAGORNE JEAN PAUL MF 22 abeilhan 03:26:47 26,98 343
361 1666 LE MAGOUROU LUDOVIC MB 65 uvcat 03:26:48 26,98 344
362 1830 BLANC PATRICE MD 76   03:26:49 26,98 345
363 1332 BLANQUET MICHEL MC 111 cyclo fonsorbais 03:26:51 26,98 346
364 1288 RIBARD GEORGES MD 77   03:27:27 26,90 347
365 1482 GROUAS YANNICK MC 112 spiridon club nature lodevois 03:27:48 26,85 348
366 1211 CHEVÉ PATRICK ME 26 cyclo club corneilhan 03:28:00 26,83 349
367 1825 HERRERA RICHARD MC 113   03:28:00 26,83 350
368 1458 OFFERMANS ERIC MB 66   03:28:00 26,83 351
369 1511 BENVEGNU ROMAIN MA 46 croco d'airain nimes triathlon 03:28:11 26,80 352
370 1425 REANEY JOHN MC 114 rieux minervois 03:28:24 26,77 353
371 1474 COMBECAVE JACQUES MD 78 cyclosport catalan 03:28:35 26,75 354
372 1713 MOLY JEAN CHARLES MD 79   03:28:37 26,75 355
373 1297 HOLDSTOCK JOHN MF 23 vcll pézenas 03:28:37 26,75 356
374 1467 CURT MICHEL MD 80 cyclosport catalan 03:28:39 26,74 357
375 1398 LAFRAISE LAURENT MC 115 lunel velo passion 03:28:40 26,74 358
376 1654 MORILLAS CHRISTOPHE MA 47 mauguio-carnon triathlon 03:28:43 26,73 359
377 1431 DENANTE AUDREY FW1 8 vélo club des alpilles 03:28:50 26,72 18
378 1330 LACAMPAGNE PHILIPPE MD 81   03:30:22 26,52 360
379 1777 DELOUR ANDRE MF 24   03:30:24 26,52 361
380 1505 PEDROS OCTAVE MD 82 aucun club 03:30:39 26,49 362
381 1725 HODAYÉ JAMES MC 116   03:30:42 26,48 363
382 1681 THOMAS GILLES MD 83 us creteil 03:30:46 26,47 364
383 1814 POUPIN JEAN-CHARLES MA 48   03:30:47 26,47 365
384 1646 VEYROND GILBERT MF 25 vélo club st flour 03:30:48 26,47 366
385 1373 DERUY VINCENT MC 117   03:30:49 26,47 367
386 1539 DEMEFFE PIERRE MD 84 les randonneurs mosans 03:30:50 26,47 368
387 1295 CHABRAT JACQUES MF 26 abeilhan 03:30:51 26,46 369
388 1204 LANCUENTRO THOMAS MB 67   03:30:52 26,46 370
389 1647 BILLAUD MICHEL MD 85 viols le fort 03:30:54 26,46 371
390 1835 MARTY MICHEL MD 86 st gaudens cyclisme 03:30:58 26,45 372
391 1268 MIGLIACCIO PHILIPPE MA 49 pignon libre vedasien 03:32:04 26,31 373
392 1570 DE MARCO SANDRINE FW1 9 crocos d'airain 03:32:05 26,31 19
393 1526 VAYSSE ERIC MC 118 vélo club grabelois 03:32:07 26,31 374
394 1438 DUCROS OLIVIER MB 68 croco d'airain nimes triathlon 03:32:08 26,30 375
395 1374 JUNIUS FABIEN MB 69   03:32:38 26,24 376
396 1213 LUZECKYZ JEAN PIERRE MD 87 les copains d'ambert 03:32:46 26,23 377
397 1426 TASTAVIN OFÉLIE FW1 10 st mathieu 34 03:32:46 26,22 20
398 1406 HURLIN ORLANE FW2 6 vo2 triathlon 03:32:47 26,22 21
399 1716 ADER DELPHINE FW1 11 cyclo club triais 03:32:48 26,22 22
400 1324 SOUCHE DAVID MC 119   03:32:48 26,22 378
401 1339 DESBONNET ERIC MC 120 cyclo fonsorbais 03:32:48 26,22 379
402 1508 EVRARD STÉPHANE MC 121   03:32:49 26,22 380
403 1714 ADER ROBERT FD 88   03:32:49 26,22 23
404 1514 BREGMESTRE SAMUEL MF 27 asph 03:32:49 26,22 381
405 1706 GAMON JEAN-FRANCOIS ME 27   03:32:50 26,22 382
406 1242 GIBOUT ROBERT MF 28 velo club belesta 03:32:51 26,21 383
407 1817 WIESLAK MICKAEL MB 70   03:33:17 26,16 384
408 1459 MASSARDIER FRANCK MC 122 team madewis 03:33:23 26,15 385
409 1648 PRADEILLES CHRISTOPHE MC 123 pignon libre vedasien 03:33:29 26,14 386
410 1550 GARCIA-CUENCA LAURENT MC 124   03:33:35 26,13 387
411 1493 LETOURNEUR DOMINIQUE MD 89 vélo club de l'oppidum - colombiers 03:33:35 26,12 388
412 1538 QUADPEERDS MICHEL MF 29 villers saint paul 03:33:42 26,11 389
413 1644 SOISSONS PIERRE MC 125   03:34:18 26,04 390
414 1488 PAULI ALAIN ME 28 velo club pays de saint-flour 03:34:45 25,98 391
415 1542 ESMANS ERIC MD 90 vcll pezenas 03:34:57 25,96 392
416 1386 HÉRAIL CHRISTOPHE MC 126   03:35:03 25,95 393
417 1694 QUINTANA JEAN MF 30 cyclo club sigeanais 03:35:07 25,94 394
418 1500 TRIBES THIERRY MC 127 teyran bike 34 03:35:17 25,92 395
419 1207 RAMBAUD SYLVAIN ME 29 pipriac 35 03:35:49 25,85 396
420 1843 DUFOUR MATHIEU MA 50 vc la pomme 03:35:56 25,84 397
421 1399 BLANC FRANCIS MF 31 beziers méditerranée cyclisme 03:36:11 25,81 398
422 1203 FAVRE MICHEL MD 91 vélo club nyon 03:36:11 25,81 399
423 1464 DARDENNES HENRI MF 32 velo club de toucy 03:36:12 25,81 400
424 1223 WOULFE MAURICE MD 92 le pignon libre védasien 03:36:13 25,81 401
425 1761 LASSAUSSE HERVE MC 128   03:36:13 25,81 402
426 1212 DEROUET PHILIPPE MF 33   03:36:16 25,80 403
427 1201 FAVRE MARYVONNE FW3 6 vélo club nyon 03:36:16 25,80 24
428 1206 MAREC PATRICK ME 30   03:36:17 25,80 404
429 1863 LEMAITRE GERARD MD 93 coc carnon cyclo 03:37:14 25,69 405
430 1308 ROTIN PIERRE-GILLES MD 94 groupe cyclo nimois 03:37:14 25,69 406
431 1416 LAVIGNE JEAN MF 34 velo d'olt 03:37:17 25,68 407
432 1760 FOURNIER LUC MC 129 corneilhan 03:37:19 25,68 408
433 1515 HUGUES CHRISTINE FW3 7 cyclo sport ciotaden 03:37:19 25,68 25
434 1564 LE CORNU LOUIS ME 31 vcll pezenas 03:38:20 25,56 409
435 1625 SOLA PATRICK ME 32 rlg gignac 03:38:48 25,50 410
436 1828 GUIRAUD PIERRE MD 95   03:38:48 25,50 411
437 1533 BITARD GRÉGORY MB 71   03:38:52 25,49 412
438 1672 LECOMPTE PHILIPPE MF 35   03:38:55 25,49 413
439 1597 LEMOINE PHILIPPE MD 96 st mathieu 34 03:38:58 25,48 414
440 1527 FRANGEUL CHRISTOPHE MC 130   03:39:01 25,48 415
441 1298 THOMAS PASCAL MD 97 nom 03:39:19 25,44 416
442 1790 SABATIER FRANÇOIS MC 131   03:39:21 25,44 417
443 1519 CARREAUD FRANCIS ME 33 caveirac vtt 03:40:06 25,35 418
444 1582 TOLMOS JEAN CLAUDE MF 36 teyran bike 34 03:40:28 25,31 419
445 1663 DERYM JEAN MF 37 caveirac vtt club 03:40:34 25,30 420
446 1266 VAN WELDEN OLIVIER MC 132 caveirac 03:40:34 25,30 421
447 1314 GALABRUN ANDRE MF 38 lunel velo passion 03:41:20 25,21 422
448 1251 CHAVE HERVE MD 98 tri run frontignan 03:41:25 25,20 423
449 1558 LATORRE ANTOINE MD 99 velo sport baho 03:41:28 25,19 424
450 1491 PERANI DANIEL MF 39   03:41:51 25,15 425
451 1492 VERDOL MICHEL MF 40   03:42:20 25,10 426
452 1329 DAUMOND JEAN-CLAUDE MF 41 velo club melgorien 03:42:20 25,10 427
453 1728 DEHAUDT GERARD ME 34 asc combaillaux 03:42:41 25,06 428
454 1247 KEHR GREGORY MB 72 montpellier triathlon 03:43:04 25,01 429
455 1259 FIS JEAN GABRIEL MD 100 les agacyclos 03:43:22 24,98 430
456 1361 SALES YVES MF 42 cyclo fonsorbais 03:43:24 24,98 431
457 1430 GASPARINI ROMAIN MB 73 draisienne minervoise 03:43:24 24,98 432
458 1585 QUEDEVILLE MICHEL MF 43 c.c.castries 03:43:27 24,97 433
459 1376 BRIOT YVES MC 133 caveirac vtt 03:43:32 24,96 434
460 1258 VALDIVIA JOSE MD 101 abeilhan 03:43:39 24,95 435
461 1205 BECAM SYLVIANE FW3 8 team cycliste choletais 03:43:51 24,93 26
462 1235 DARGENT JANICK MD 102 velo clug agathois 03:43:51 24,93 436
463 1202 WEBERT BRIGITTE FW3 9 cyclo sport ciotaden 03:43:51 24,93 27
464 1436 ARCHIMBAUD CHRISTOPHE MB 74   03:44:43 24,83 437
465 1837 LACAN CHARLES MF 44   03:44:46 24,82 438
466 1427 GOMEZ MARCEL MF 45 vc mauriac 03:44:48 24,82 439
467 1838 WILLI FRANCOIS MD 103 guidon sportif setois 03:44:50 24,82 440
468 1836 MARTINEZ SAUVEUR MC 134   03:44:50 24,82 441
469 1622 BOURDON YVAN MB 75 guidon sportif setois 03:44:50 24,82 442
470 1274 BIGOT ERIC MD 104 toac 03:46:40 24,62 443
471 1766 MONFROY -MOITY CHARLES ME 35 lattes 03:46:40 24,62 444
472 1568 GAILLARD ADRIEN MA 51 cyclo club tuchan 03:46:43 24,61 445
473 1580 ALCAZAR JACQUES ME 36 roue libre gignacoise 03:46:43 24,61 446
474 1310 MARTINEZ MICHEL MD 105   03:47:16 24,55 447
475 1487 NOMDEDEU JEAN-LUC MF 46   03:47:20 24,54 448
476 1693 MOLINIE DANIEL MD 106 torboyo 03:47:28 24,53 449
477 1284 GARCIA JEAN MARIE MD 107   03:47:33 24,52 450
478 1253 LASSALLE ADRIEN MB 76   03:48:18 24,44 451
479 1388 NIDHSAIN NORDINE MC 135   03:48:52 24,38 452
480 1857 FAURE ANDRE MF 47 usp issoirienne 03:48:54 24,38 453
481 1303 COSSON STEPHANE MD 108   03:49:20 24,33 454
482 1822 RODRIGUEZ PERFECTO MC 136 bmc 03:49:21 24,33 455
483 1821 MATEO JEROME MB 77   03:49:21 24,33 456
484 1829 CATARSI CHRISTIAN MF 48 velo club arlesien 03:49:21 24,33 457
485 1704 ESQUIVA JEANNOEL MC 137 cyclo club mezois 03:49:53 24,27 458
486 1613 PEREZ JOCELYNE FW3 10 cyclo club mazérien 03:49:54 24,27 28
487 1615 PEREZ JOSE MD 109 cyclo club mazérien 03:49:54 24,27 459
488 1317 DUMON PATRICIA FW3 11 coc carnon cyclo 03:50:00 24,26 29
489 1699 GONZALEZ NIEVES FW2 7 canohes avenir cycliste 03:50:45 24,18 30
490 1698 ARTAUD CLAUDE ME 37 canohes avenir cycliste 03:50:45 24,18 460
491 1740 DEVLAMYNCK EMMANUEL MC 138 sud velo / ne jetez plus ! 03:50:59 24,16 461
492 1834 LONIER JACQUES MD 110   03:51:07 24,14 462
493 1630 ROTGER JACQUES ME 38 ocp 03:51:32 24,10 463
494 1264 MOREAU PATRICK MF 49   03:51:44 24,08 464
495 1510 COULANGE BERNARD MF 50 cyclo sport ciotaden 03:52:20 24,02 465
496 1667 ALASU JEAN PIERRE MC 139   03:52:21 24,02 466
497 1292 MATHIEU STÉPHANIE FW2 8   03:53:18 23,92 31
498 1241 PIQUET LAURENT MD 111   03:53:24 23,91 467
499 1504 VIANA JACQUES MD 112   03:53:52 23,86 468
500 1635 CASTAREDE JOSETTE FW3 12 cyclo club marvejolais 03:53:54 23,86 32
501 1833 BOMMENEL GYSLAIN MB 78 ac bollene 03:54:42 23,77 469
502 1551 PELLETIER RENÉ MD 113 velo sport baho 03:55:00 23,74 470
503 1316 BERRUS ERIC MD 114 velo tonic vauverdois 03:55:42 23,67 471
504 1512 TROUCHE PIERRE MD 115   03:56:58 23,55 472
505 1792 MONTEILS ROGER MF 51   03:58:24 23,41 473
506 1490 BRINGUIER CHARLES ME 39 cycloclub tuchanais 03:58:46 23,37 474
507 1218 DE LADOUCETTE PHILIPPE MF 52 ilede france 03:59:16 23,32 475
508 1267 COSTES JEAN ME 40   03:59:56 23,26 476
509 1746 LAFFONT DIDIER MD 116   03:59:56 23,26 477
510 1661 DEBIEVE ALAIN MC 140 lunel bike 03:59:56 23,26 478
511 1649 VIDAL-SANZ FABRICE MC 141 tri club beaucaire tarascon 04:00:31 23,20 479
512 1358 LEMAILLOUX ERIC MC 142 cyclo fonsorbais 04:00:44 23,18 480
513 1334 CLAISSE MICHEL MD 117 cyclo fonsorbais 04:00:58 23,16 481
514 1658 ALVAREZ OLIVIER MC 143   04:00:58 23,16 482
515 9 HARDMAN PETER ME 41   04:01:35 23,10 483
516 8 HARDMAN JACKIE FW3 13   04:01:35 23,10 33
517 1353 PARAPEL THIERRY MD 118 cyclo fonsorbais 04:03:26 22,92 484
518 1354 CHAROY PHILIPPE MC 144 cyclo fonsorbais 04:03:26 22,92 485
519 1433 LAINE JULIEN MF 53   04:03:27 22,92 486
520 1517 PACHON FREDERIC MD 119 scp plaisance 04:03:43 22,90 487
521 1385 NAVARRO YANNICK MB 79 ariégeoise cyclo club 04:03:44 22,89 488
522 1778 BISCH JEAN MICHEL MC 145   04:03:45 22,89 489
523 1228 KNOBLOCH CHRISTOPHE MC 146 sans club 04:03:45 22,89 490
524 1583 LOUPIAC BERTRAND MF 54   04:03:48 22,89 491
525 1525 CHESNAIS BERNARD MD 120 cvc montfavet 04:04:12 22,85 492
526 1319 LE PAPE ROGER MD 121   04:05:22 22,74 493
527 1200 WEBERT JEAN-FRANÇOIS ME 42 cyclo sport ciotaden 04:05:36 22,72 494
528 1345 BRAILLY JULIEN MB 80 vc les angles 04:05:44 22,71 495
529 1807 BEAUVILLAIN OLIVIER MD 122   04:06:59 22,59 496
530 1234 MARROT CHRISTIAN MD 123   04:07:19 22,56 497
531 1221 GAT FRÉDÉRIC MC 147   04:08:26 22,46 498
532 1220 GELY JEAN DENIS ME 43 tobesport 04:08:26 22,46 499
533 1562 SIMON JACKY ME 44 lunel velo passion 04:08:46 22,43 500
534 1412 CORNIER PATRICK MD 124   04:08:49 22,43 501
535 1240 AMAN ALAIN ME 45   04:08:54 22,42 502
536 1786 NAZON THIERRY MF 55 pas de club. pas licencié. ne marche pas quand je tape non 04:09:09 22,40 503
537 1604 ESCOBAR HENRI PAUL MD 125 gs setois 04:09:34 22,36 504
538 1634 ASTRUC MARC MD 126 guidon sportif sétois 04:09:35 22,36 505
539 1606 RIVIERE ARNAUD MD 127 guidon sportif sétois 04:09:45 22,34 506
540 1449 AMOROS MARCEL ME 46 guidon sportif sètoi 04:09:46 22,34 507
541 1767 AVY FRANCOISE FW3 14 istres sport cyclo 04:09:50 22,33 34
542 1823 POUDEVIGNE HENRI ME 47 cycle de meze 04:09:51 22,33 508
543 1457 MOLINIER CHRISTIAN MD 128   04:11:42 22,17 509
544 1349 MOLES FREDERIC MD 129 cylo fonsorbais 04:12:01 22,14 510
545 1328 PASCUAL LUCIEN MD 130   04:12:36 22,09 511
546 1352 DO CONTO PATRICK MD 131 cyclo fonsorbais 04:12:39 22,09 512
547 1344 BERNIS MICHEL MD 132 cyclo fonsorbais 04:12:39 22,08 513
548 1531 MAS CHRISTINE FW2 9   04:13:23 22,02 35
549 1350 REGASSE PATRICK MC 148 cyclo fonsorbais 04:13:30 22,01 514
550 1337 DOULADOURE JEAN MATHIEU MC 149 cyclo fonsorbais 04:13:35 22,00 515
551 1789 ROBELAIN PHILIPPE MD 133   04:13:57 21,97 516
552 1340 TROCELLO PHILIPPE MC 150 cyclo fonsorbais 04:15:56 21,80 517
553 1552 TOSCANO CATHERINE FW2 10 lunel bike 04:16:42 21,74 36
554 1282 WARIN BERNARD MD 134   04:16:55 21,72 518
555 1250 CLOUZET BERNARD MF 56   04:18:33 21,58 519
556 1645 VAISSETTE ERIC MC 151 non 04:18:49 21,56 520
557 1365 LABADENS OLIVIER MC 152 cyclo fonsorbais 04:19:17 21,52 521
558 1845 MARTI SABINE MD 135 tcn narbonne 04:19:36 21,49 522
559 816 NIGEL FORDE MB 81   04:20:05 21,45 523
560 1700 DESCOUX J PIERRE MD 136   04:20:24 21,43 524
561 1341 FOURNIER LAURENT MC 153 cyclo fonsorbais 04:20:25 21,43 525
562 1816 VALLOTTON CHARLES MF 57   04:20:25 21,43 526
563 1338 FINOTTO BRUNO MC 154 cyclo fonsorbais 04:20:25 21,43 527
564 1588 ROUHAUD ALINE FW3 15 cycloclub de castries 04:21:25 21,34 37
565 1231 JOURNET STEPHANE MC 155   04:21:33 21,33 528
566 1466 BULTEAU PATRICK MD 137 grabels 04:23:56 21,14 529
567 1377 BERCHOUD GERARD ME 48   04:28:04 20,82 530
568 1346 PERE MICHEL MF 58   04:30:10 20,65 531
569 1414 DUPRE DIDIER MC 156   04:34:13 20,35 532
570 1389 GHERBI KARIM MC 157   04:34:30 20,33 533
571 1300 HAMANDIA   MC 158 juvignac 04:34:46 20,31 534
572 1444 DURAND CLAUDE MD 138 velo club grabellois 04:35:13 20,27 535
573 1499 LAUTREC PIERRYCK MD 139 cyclo club de vendargues 04:36:09 20,21 536
574 1794 DOUSSAN ROBERT ME 49 tobesport 04:38:55 20,00 537
575 1291 PIGEARD MAURICE MF 59   04:40:36 19,89 538
576 1219 TEROL MICHEL MD 140   04:42:41 19,74 539
577 1256 DELMAS DOMINIQUE MF 60 us colomiers cyclisme section handi sport 04:45:12 19,56 540
578 1413 ROMERA PIERRE MD 141   04:46:02 19,51 541
579 1624 GINER MICHEL ME 50 roue libre gignacoise 04:49:49 19,25 542
580 1286 BENHAROUS XAVIER MB 82   04:50:45 19,19 543
581 1351 PENA PASCAL MC 159 cyclo fonsorbais 04:51:26 19,15 544
582 1715 FOLCHER ROMAIN MF 61 neutre lr 04:55:32 18,88 545
583 1366 BEDRINES BERNADETTE FW3 16 cyclo fonsorbais 04:58:33 18,69 38
584 1363 COMPTE FLOREAL ME 51 cyclo fonsorbais 04:58:36 18,69 546
585 1348 JANY ALAIN MD 142 cyclo fonsorbais 04:58:36 18,69 547
586 1367 GIOVANNANGELI MURIEL FW2 11 cyclo fonsorbais 04:58:39 18,68 39
587 1293 GUILLOBEZ BERNADETTE FW3 17 sud vélo/ne jetez plus 04:58:47 18,68 40
588 1665 GUILLOBEZ SERGE MF 62 sud velo ne jetez plus 04:58:48 18,67 548
589 1369 SALES MARTINE FW3 18 cyclo fonsorbais 05:02:12 18,46 41
590 1356 BEAUCHAMPS DOMINIQUE MD 143 cyclo fonsorbais 05:02:14 18,46 549
591 1362 GIOVANNANGELI FREDERIC MD 144 cyclo fonsorbais 05:02:14 18,46 550
592 1342 MOMMEJA JEN LOUIS MD 145 cyclo fonsorbais 05:02:14 18,46 551
593 1360 PRATVIEL MICHEL MF 63 cyclo fonsorbais 05:02:14 18,46 552
594 1368 LEMAILLOUX MARIE HÉLÈNE FW2 12 cyclo fonsorbais 05:04:51 18,30 42
595 1270 EUZET GUILLAUME MC 160 ecg pignan 05:05:07 18,29 553
596 1279 VALLADIER WILLIAM MC 161   05:05:08 18,29 554
597 1359 LERAT JACQUES MF 64 cyclo fonsorbais 05:06:56 18,18 555
598 1335 REGO MANUEL MD 146 cyclo fonsorbais 05:07:02 18,17 556
599 1347 SIKORA DNIEL ME 52 cyclo fonsorbais 05:07:03 18,17 557
600 423 CAMPBELL ROAN MC 162 galwaybay cc 05:07:38 18,14 558
601 1497 PETIT DUBOUSQUET SEBSTIEN MC 163 ec luc la primaube 00:00:00 3,88 559
602 1638 ESPINASSIER BORIS MA 52 vssa 00:00:00 3,88 560
603 1802 RIGOLLET SÉBASTIEN MA 53 mousquetaires cyclistes pradéens 00:00:00 3,88 561
604 1853 CAZALS FRANCIS ME 53 fleche du midi 00:00:00 3,88 562